• In Hungary
  • List of Countries
  • For 7 days
  • Water Temperature
  • Satellite Maps
  • Weather Map
  • News
  • Weather Widgets
  • user-avatar
    Login

    Hourly Weather Shora

    Today, 17 October, Wednesday

    Time Temperature Precipitation Wind Pressure Humidity
    00:00 +4°C° 0.3 mm 6 mps 736 mmHg 64%
    01:00 +5°C° 0.3 mm 5 mps 737 mmHg 63%
    02:00 +5°C° 0.3 mm 5 mps 737 mmHg 63%
    03:00 +3°C° 0.1 mm 5 mps 738 mmHg 63%
    04:00 +3°C° 0.1 mm 5 mps 739 mmHg 63%
    05:00 +3°C° 0 mm 5 mps 740 mmHg 56%
    06:00 +3°C° 0 mm 5 mps 740 mmHg 55%
    07:00 +3°C° 0 mm 5 mps 741 mmHg 54%
    08:00 +3°C° 0 mm 5 mps 741 mmHg 53%
    09:00 +6°C° 0 mm 5 mps 741 mmHg 47%
    10:00 +7°C° 0 mm 4 mps 741 mmHg 41%
    11:00 +8°C° 0 mm 4 mps 741 mmHg 35%
    12:00 +10°C° 0 mm 3 mps 740 mmHg 32%
    13:00 +10°C° 0 mm 3 mps 740 mmHg 29%
    14:00 +11°C° 0 mm 3 mps 740 mmHg 27%
    15:00 +12°C° 0 mm 2 mps 740 mmHg 27%
    16:00 +12°C° 0 mm 2 mps 740 mmHg 28%
    17:00 +12°C° 0 mm 2 mps 740 mmHg 29%
    18:00 +10°C° 0 mm 2 mps 740 mmHg 32%
    19:00 +9°C° 0 mm 2 mps 741 mmHg 36%
    20:00 +8°C° 0 mm 2 mps 741 mmHg 40%
    21:00 +7°C° 0 mm 2 mps 741 mmHg 44%
    22:00 +7°C° 0 mm 2 mps 741 mmHg 47%
    23:00 +6°C° 0 mm 2 mps 740 mmHg 51%

    Tomorrow, 18 October, Thursday

    Time Temperature Precipitation Wind Pressure Humidity
    00:00 +6°C° 0 mm 2 mps 740 mmHg 53%
    01:00 +6°C° 0 mm 2 mps 739 mmHg 54%
    02:00 +5°C° 0 mm 2 mps 738 mmHg 56%
    03:00 +5°C° 0 mm 2 mps 738 mmHg 56%
    04:00 +6°C° 0 mm 1 mps 738 mmHg 55%
    05:00 +5°C° 0 mm 1 mps 737 mmHg 55%
    06:00 +6°C° 0 mm 1 mps 737 mmHg 51%
    07:00 +7°C° 0 mm 1 mps 737 mmHg 48%
    08:00 +7°C° 0 mm 1 mps 737 mmHg 44%
    09:00 +8°C° 0 mm 2 mps 736 mmHg 39%
    10:00 +9°C° 0 mm 2 mps 735 mmHg 33%
    11:00 +11°C° 0 mm 3 mps 734 mmHg 28%
    12:00 +12°C° 0 mm 3 mps 734 mmHg 25%
    13:00 +13°C° 0 mm 3 mps 733 mmHg 23%
    14:00 +15°C° 0 mm 2 mps 733 mmHg 21%
    15:00 +14°C° 0 mm 2 mps 733 mmHg 22%
    16:00 +14°C° 0 mm 2 mps 733 mmHg 23%
    17:00 +14°C° 0 mm 2 mps 733 mmHg 23%
    18:00 +13°C° 0 mm 1 mps 734 mmHg 25%
    19:00 +12°C° 0 mm 1 mps 734 mmHg 27%
    20:00 +12°C° 0 mm 1 mps 735 mmHg 29%
    21:00 +11°C° 0 mm 1 mps 735 mmHg 29%
    22:00 +11°C° 0 mm 1 mps 735 mmHg 29%
    23:00 +11°C° 0 mm 1 mps 734 mmHg 30%

    Day after tomorrow, 19 October, Friday

    Time Temperature Precipitation Wind Pressure Humidity
    00:00 +11°C° 0 mm 1 mps 735 mmHg 30%
    01:00 +11°C° 0 mm 1 mps 735 mmHg 30%
    02:00 +11°C° 0 mm 1 mps 735 mmHg 30%
    03:00 +11°C° 0 mm 1 mps 735 mmHg 30%
    04:00 +11°C° 0 mm 1 mps 735 mmHg 30%
    05:00 +11°C° 0 mm 1 mps 735 mmHg 30%
    06:00 +11°C° 0 mm 1 mps 735 mmHg 29%
    07:00 +12°C° 0 mm 1 mps 736 mmHg 28%
    08:00 +12°C° 0 mm 1 mps 736 mmHg 27%
    09:00 +14°C° 0 mm 2 mps 736 mmHg 25%
    10:00 +15°C° 0 mm 2 mps 735 mmHg 23%
    11:00 +16°C° 0 mm 2 mps 735 mmHg 21%
    12:00 +17°C° 0 mm 2 mps 735 mmHg 21%
    13:00 +17°C° 0 mm 3 mps 735 mmHg 21%
    14:00 +18°C° 0 mm 3 mps 735 mmHg 21%
    15:00 +18°C° 0 mm 3 mps 735 mmHg 21%
    16:00 +18°C° 0 mm 2 mps 735 mmHg 22%
    17:00 +17°C° 0 mm 2 mps 736 mmHg 23%
    18:00 +16°C° 0 mm 2 mps 736 mmHg 25%
    19:00 +15°C° 0 mm 2 mps 736 mmHg 28%
    20:00 +14°C° 0 mm 1 mps 737 mmHg 30%
    21:00 +13°C° 0 mm 1 mps 737 mmHg 31%
    22:00 +13°C° 0 mm 1 mps 737 mmHg 32%
    23:00 +12°C° 0 mm 1 mps 737 mmHg 34%

    20 October, Saturday

    Time Temperature Precipitation Wind Pressure Humidity
    00:00 +12°C° 0 mm 1 mps 737 mmHg 34%
    01:00 +11°C° 0 mm 1 mps 737 mmHg 35%
    02:00 +11°C° 0 mm 1 mps 736 mmHg 36%
    03:00 +11°C° 0 mm 1 mps 736 mmHg 36%
    04:00 +11°C° 0 mm 1 mps 736 mmHg 37%
    05:00 +10°C° 0 mm 1 mps 736 mmHg 37%
    06:00 +11°C° 0 mm 1 mps 736 mmHg 36%
    07:00 +12°C° 0 mm 1 mps 736 mmHg 34%
    08:00 +13°C° 0 mm 1 mps 736 mmHg 33%
    09:00 +14°C° 0 mm 1 mps 736 mmHg 30%
    10:00 +15°C° 0 mm 2 mps 736 mmHg 28%
    11:00 +17°C° 0 mm 2 mps 735 mmHg 25%
    12:00 +17°C° 0 mm 2 mps 735 mmHg 24%
    13:00 +18°C° 0 mm 2 mps 735 mmHg 23%
    14:00 +19°C° 0 mm 2 mps 735 mmHg 22%
    15:00 +19°C° 0 mm 2 mps 735 mmHg 23%
    16:00 +18°C° 0 mm 2 mps 735 mmHg 24%
    17:00 +19°C° 0 mm 1 mps 735 mmHg 25%
    18:00 +18°C° 0 mm 1 mps 735 mmHg 27%
    19:00 +18°C° 0 mm 1 mps 736 mmHg 28%
    20:00 +16°C° 0 mm 1 mps 736 mmHg 30%
    21:00 +15°C° 0 mm 1 mps 736 mmHg 31%
    22:00 +15°C° 0 mm 1 mps 736 mmHg 32%
    23:00 +14°C° 0 mm 1 mps 736 mmHg 33%

    21 October, Sunday

    Time Temperature Precipitation Wind Pressure Humidity
    00:00 +14°C° 0 mm 1 mps 735 mmHg 34%
    01:00 +14°C° 0 mm 1 mps 735 mmHg 35%
    02:00 +13°C° 0 mm 1 mps 735 mmHg 36%
    03:00 +13°C° 0 mm 1 mps 735 mmHg 37%
    04:00 +12°C° 0 mm 1 mps 735 mmHg 37%
    05:00 +12°C° 0 mm 1 mps 735 mmHg 38%
    06:00 +13°C° 0 mm 1 mps 735 mmHg 37%
    07:00 +14°C° 0 mm 1 mps 735 mmHg 35%
    08:00 +14°C° 0 mm 1 mps 736 mmHg 34%
    09:00 +16°C° 0 mm 1 mps 735 mmHg 31%
    10:00 +17°C° 0 mm 2 mps 735 mmHg 28%
    11:00 +19°C° 0 mm 2 mps 735 mmHg 25%
    12:00 +20°C° 0 mm 2 mps 734 mmHg 24%
    13:00 +20°C° 0 mm 2 mps 734 mmHg 23%
    14:00 +21°C° 0 mm 2 mps 734 mmHg 21%
    15:00 +21°C° 0 mm 2 mps 734 mmHg 22%
    16:00 +20°C° 0 mm 2 mps 734 mmHg 23%
    17:00 +21°C° 0 mm 1 mps 734 mmHg 24%
    18:00 +20°C° 0 mm 1 mps 734 mmHg 26%
    19:00 +19°C° 0 mm 1 mps 735 mmHg 28%
    20:00 +18°C° 0 mm 1 mps 735 mmHg 30%
    21:00 +16°C° 0 mm 1 mps 735 mmHg 30%
    22:00 +16°C° 0 mm 1 mps 735 mmHg 31%
    23:00 +16°C° 0 mm 1 mps 735 mmHg 31%

    22 October, Monday

    Time Temperature Precipitation Wind Pressure Humidity
    00:00 +15°C° 0 mm 1 mps 735 mmHg 32%
    01:00 +15°C° 0 mm 1 mps 735 mmHg 33%
    02:00 +14°C° 0 mm 1 mps 734 mmHg 34%
    03:00 +14°C° 0 mm 1 mps 734 mmHg 35%
    04:00 +14°C° 0 mm 1 mps 734 mmHg 35%
    05:00 +13°C° 0 mm 1 mps 734 mmHg 36%
    06:00 +14°C° 0 mm 1 mps 734 mmHg 35%
    07:00 +15°C° 0 mm 1 mps 734 mmHg 34%
    08:00 +16°C° 0 mm 1 mps 734 mmHg 32%
    09:00 +18°C° 0 mm 1 mps 734 mmHg 29%
    10:00 +19°C° 0 mm 2 mps 734 mmHg 26%
    11:00 +20°C° 0 mm 2 mps 734 mmHg 22%
    12:00 +21°C° 0 mm 2 mps 733 mmHg 21%
    13:00 +23°C° 0 mm 2 mps 733 mmHg 20%
    14:00 +24°C° 0 mm 2 mps 733 mmHg 18%
    15:00 +23°C° 0 mm 2 mps 733 mmHg 20%
    16:00 +23°C° 0 mm 1 mps 733 mmHg 21%
    17:00 +22°C° 0 mm 1 mps 733 mmHg 22%
    18:00 +21°C° 0 mm 1 mps 733 mmHg 24%
    19:00 +20°C° 0 mm 1 mps 733 mmHg 25%
    20:00 +19°C° 0 mm 1 mps 734 mmHg 27%
    21:00 +18°C° 0 mm 1 mps 734 mmHg 27%
    22:00 +18°C° 0 mm 1 mps 734 mmHg 28%
    23:00 +16°C° 0 mm 1 mps 734 mmHg 28%
    Show more